Location: Poughquag
(41.6090°N, 73.6820°W)
Time: 13:20:13
(UTC-04:00)

Vanguard 3 - Pass Details

Date: 04 June 2020
Orbit: 510 x 3261 km, 33.3° (Epoch: 05 July)

Event Time Altitude Azimuth Distance (km) Brightness Sun altitude
Exits shadow 22:43:27 11° 115° (ESE) 6,028 11.1 -19.1°
Drops below altitude 10° 22:44:36 10° 111° (ESE) 6,079 11.1 -19.2°
Sets 22:53:08 0° 89° (E) 6,742 11.6 -20.0°
